{"data":{"norad_id":65746,"intl_designator":"2025-216N","name":"STARLINK-34704","alt_names":[],"object_type":"PAYLOAD","status":"ACTIVE","operator":null,"country":"US","launch_date":"2025-09-25","launch_site_code":"AFETR","launch_vehicle":null,"mission":null,"orbit_class":"UNKNOWN","rcs_meters":null,"size_class":null,"mass_kg":null,"dimensions":null,"purposes":["comms"],"wikipedia_slug":null,"has_3d_model":false,"image_url":null,"decayed_at":null,"tle_current":{"epoch":"2026-09-20T23:14:30.878880Z","epoch_age_seconds":68081,"freshness":"FRESH","line1":"1 65746U 25216N   26263.96841295  .00024146  00000+0  72338-3 0  9999","line2":"2 65746  53.1597 143.5704 0000945  73.2076 286.9030 15.34403602 56464","mean_motion":15.34403602,"eccentricity":9.45e-5,"inclination_deg":53.1597,"raan_deg":143.5704,"arg_perigee_deg":73.2076,"mean_anomaly_deg":286.903,"bstar":0.00072338,"rev_number":5646,"period_min":93.847537774484,"perigee_km":462.04607593397,"apogee_km":463.33899271596,"semimajor_km":6840.829534325,"source":"CELESTRAK","updated_at":"2026-09-21T09:00:35.709273Z"}}}